Orbital Elements at Epoch 2459000.5 (2020-May-31.0) TDB
Reference: JPL 16 (heliocentric ecliptic J2000)
Element | Value | Uncertainty (1-sigma) | Units |
e | .1460320498387478 | 9.7769e-08 | |
a | 2.555254627294521 | 1.8675e-08 | au |
q | 2.182105556210757 | 2.5867e-07 | au |
i | 1.786298777288211 | 7.4954e-06 | deg |
node | 15.56816138393902 | 0.00012486 | deg |
peri | 358.9953699609757 | 0.00012626 | deg |
M | 318.4589384279789 | 1.4656e-05 | deg |
tp | 2459172.657041944584 (2020-Nov-19.15704194) | 6.0715e-05 | TDB |
period | 1491.934311611159 4.08 | 1.6355e-05 4.478e-08 | d yr |
n | .2412974868921885 | 2.6452e-09 | deg/d |
Q | 2.928403698378285 | 2.1402e-08 | au |
|
| | Orbit Determination Parameters
Additional Information
|